Time,TemperatureF,DewpointF,PressureIn,WindDirection,WindDirectionDegrees,WindSpeedMPH,WindSpeedGustMPH,Humidity,HourlyPrecipIn,Conditions,Clouds,dailyrainin,SolarRadiationWatts/m^2,SoftwareType,DateUTC
2013-11-17 00:22:00,41.0,41.0,-100.00,South,190,12.0,20.0,100,0.00,,,0.00,1.000000,,2013-11-17 08:22:00,
2013-11-17 00:32:00,41.0,41.0,-100.00,South,190,12.0,20.0,100,0.00,,,0.00,1.000000,,2013-11-17 08:32:00,
2013-11-17 00:42:00,41.0,41.0,-100.00,South,190,12.0,20.0,100,0.00,,,0.00,1.000000,,2013-11-17 08:42:00,
2013-11-17 00:52:00,41.0,41.0,-100.00,South,190,12.0,20.0,100,0.00,,,0.00,1.000000,,2013-11-17 08:52:00,
2013-11-17 01:22:00,41.0,41.0,-100.00,South,191,15.0,20.0,100,0.00,,,0.00,1.000000,,2013-11-17 09:22:00,
2013-11-17 01:33:00,41.0,41.0,-100.00,South,191,15.0,20.0,100,0.00,,,0.00,1.000000,,2013-11-17 09:33:00,
2013-11-17 01:42:00,41.0,41.0,-100.00,South,191,15.0,20.0,100,0.00,,,0.00,1.000000,,2013-11-17 09:42:00,
2013-11-17 01:53:00,41.0,41.0,-100.00,South,191,15.0,20.0,100,0.00,,,0.00,1.000000,,2013-11-17 09:53:00,
2013-11-17 02:42:00,41.0,41.0,-100.00,SSW,192,16.0,21.0,100,0.00,,,0.00,1.000000,,2013-11-17 10:42:00,
2013-11-17 02:53:00,41.0,41.0,-100.00,SSW,192,16.0,21.0,100,0.00,,,0.00,1.000000,,2013-11-17 10:53:00,
2013-11-17 03:43:00,40.0,40.0,-100.00,SSW,192,14.0,21.0,100,0.01,,,0.01,1.000000,,2013-11-17 11:43:00,
2013-11-17 03:52:00,40.0,40.0,-100.00,SSW,192,14.0,21.0,100,0.01,,,0.01,1.000000,,2013-11-17 11:52:00,
2013-11-17 04:22:00,40.0,40.0,-100.00,South,186,14.0,18.0,100,0.00,,,0.01,1.000000,,2013-11-17 12:22:00,
2013-11-17 04:32:00,40.0,40.0,-100.00,South,186,14.0,18.0,100,0.00,,,0.01,1.000000,,2013-11-17 12:32:00,
2013-11-17 04:42:00,40.0,40.0,-100.00,South,186,14.0,18.0,100,0.00,,,0.01,1.000000,,2013-11-17 12:42:00,
2013-11-17 04:52:00,40.0,40.0,-100.00,South,186,14.0,18.0,100,0.00,,,0.01,1.000000,,2013-11-17 12:52:00,
2013-11-17 05:42:00,40.0,40.0,-100.00,South,182,12.0,17.0,100,0.00,,,0.01,1.000000,,2013-11-17 13:42:00,
2013-11-17 05:52:00,40.0,40.0,-100.00,South,182,12.0,17.0,100,0.00,,,0.01,1.000000,,2013-11-17 13:52:00,
2013-11-17 06:42:00,40.0,40.0,-100.00,South,187,9.0,15.0,100,0.00,,,0.01,1.000000,,2013-11-17 14:42:00,
2013-11-17 06:52:00,40.0,40.0,-100.00,South,187,9.0,15.0,100,0.00,,,0.01,1.000000,,2013-11-17 14:52:00,
2013-11-17 07:43:00,40.0,40.0,-100.00,South,185,6.0,11.0,100,0.00,,,0.01,11.000000,,2013-11-17 15:43:00,
2013-11-17 07:54:00,40.0,40.0,-100.00,South,185,6.0,11.0,100,0.00,,,0.01,11.000000,,2013-11-17 15:54:00,
2013-11-17 08:42:00,42.0,42.0,-100.00,SSE,165,3.0,8.0,100,0.00,,,0.01,98.000000,,2013-11-17 16:42:00,
2013-11-17 08:53:00,42.0,42.0,-100.00,SSE,165,3.0,8.0,100,0.00,,,0.01,98.000000,,2013-11-17 16:53:00,
2013-11-17 09:22:00,45.0,45.0,-100.00,SSE,159,3.0,6.0,100,0.00,,,0.01,148.000000,,2013-11-17 17:22:00,
2013-11-17 09:33:00,45.0,45.0,-100.00,SSE,159,3.0,6.0,100,0.00,,,0.01,148.000000,,2013-11-17 17:33:00,
2013-11-17 09:43:00,45.0,45.0,-100.00,SSE,159,3.0,6.0,100,0.00,,,0.01,148.000000,,2013-11-17 17:43:00,
2013-11-17 09:52:00,45.0,45.0,-100.00,SSE,159,3.0,6.0,100,0.00,,,0.01,148.000000,,2013-11-17 17:52:00,
2013-11-17 10:42:00,50.0,49.0,-100.00,NNW,348,1.0,7.0,97,0.00,,,0.01,598.000000,,2013-11-17 18:42:00,
2013-11-17 10:52:00,50.0,49.0,-100.00,NNW,348,1.0,7.0,97,0.00,,,0.01,598.000000,,2013-11-17 18:52:00,
2013-11-17 11:42:00,53.0,39.0,-100.00,North,1,2.0,6.0,60,0.00,,,0.01,724.000000,,2013-11-17 19:42:00,
2013-11-17 11:52:00,53.0,39.0,-100.00,North,1,2.0,6.0,60,0.00,,,0.01,724.000000,,2013-11-17 19:52:00,
2013-11-17 12:43:00,56.0,37.0,-100.00,NE,34,1.0,9.0,49,0.00,,,0.01,771.000000,,2013-11-17 20:43:00,
2013-11-17 12:52:00,56.0,37.0,-100.00,NE,34,1.0,9.0,49,0.00,,,0.01,771.000000,,2013-11-17 20:52:00,
2013-11-17 13:44:00,58.0,35.0,-100.00,NNE,23,2.0,6.0,42,0.00,,,0.01,743.000000,,2013-11-17 21:44:00,
2013-11-17 13:55:00,58.0,35.0,-100.00,NNE,23,2.0,6.0,42,0.00,,,0.01,743.000000,,2013-11-17 21:55:00,
2013-11-17 14:43:00,58.0,37.0,-100.00,South,177,5.0,11.0,46,0.00,,,-99.99,642.000000,,2013-11-17 22:43:00,
2013-11-17 14:53:00,58.0,37.0,-100.00,South,177,5.0,11.0,46,0.00,,,-99.99,642.000000,,2013-11-17 22:53:00,
2013-11-17 15:23:00,57.0,40.0,-100.00,South,184,7.0,11.0,52,0.00,,,0.01,485.000000,,2013-11-17 23:23:00,
2013-11-17 15:33:00,57.0,40.0,-100.00,South,184,7.0,11.0,52,0.00,,,0.01,485.000000,,2013-11-17 23:33:00,
2013-11-17 15:42:00,57.0,40.0,-100.00,South,184,7.0,11.0,52,0.00,,,0.01,485.000000,,2013-11-17 23:42:00,
2013-11-17 15:52:00,57.0,40.0,-100.00,South,184,7.0,11.0,52,0.00,,,0.01,485.000000,,2013-11-17 23:52:00,
2013-11-17 16:21:00,52.0,39.0,-100.00,South,189,7.0,11.0,62,0.00,,,0.01,241.000000,,2013-11-18 00:21:00,
2013-11-17 16:32:00,52.0,39.0,-100.00,South,189,7.0,11.0,62,0.00,,,0.01,241.000000,,2013-11-18 00:32:00,
2013-11-17 16:42:00,52.0,39.0,-100.00,South,189,7.0,11.0,62,0.00,,,0.01,241.000000,,2013-11-18 00:42:00,
2013-11-17 16:52:00,52.0,39.0,-100.00,South,189,7.0,11.0,62,0.00,,,0.01,241.000000,,2013-11-18 00:52:00,
2013-11-17 17:42:00,47.0,41.0,-100.00,South,183,8.0,12.0,78,-99.99,,,0.00,56.000000,,2013-11-18 01:42:00,
2013-11-17 17:52:00,47.0,41.0,-100.00,South,183,8.0,12.0,78,-99.99,,,0.00,56.000000,,2013-11-18 01:52:00,
2013-11-17 18:42:00,45.0,43.0,-100.00,South,184,6.0,10.0,93,0.00,,,0.00,1.000000,,2013-11-18 02:42:00,
2013-11-17 18:52:00,45.0,43.0,-100.00,South,184,6.0,10.0,93,0.00,,,0.00,1.000000,,2013-11-18 02:52:00,
2013-11-17 19:44:00,44.0,42.0,-100.00,West,276,0.0,7.0,91,0.00,,,0.00,1.000000,,2013-11-18 03:44:00,
2013-11-17 19:54:00,44.0,42.0,-100.00,West,276,0.0,7.0,91,0.00,,,0.00,1.000000,,2013-11-18 03:54:00,
2013-11-17 20:42:00,45.0,33.0,-100.00,North,11,0.0,0.0,63,0.00,,,0.00,1.000000,,2013-11-18 04:42:00,
2013-11-17 20:52:00,45.0,33.0,-100.00,North,11,0.0,0.0,63,0.00,,,0.00,1.000000,,2013-11-18 04:52:00,
2013-11-17 21:43:00,46.0,35.0,-100.00,North,358,5.0,8.0,64,0.00,,,0.00,1.000000,,2013-11-18 05:43:00,
2013-11-17 21:53:00,46.0,35.0,-100.00,North,358,5.0,8.0,64,0.00,,,0.00,1.000000,,2013-11-18 05:53:00,
2013-11-17 22:42:00,46.0,33.0,-100.00,North,358,6.0,12.0,61,0.00,,,0.00,1.000000,,2013-11-18 06:42:00,
2013-11-17 22:52:00,46.0,33.0,-100.00,North,358,6.0,12.0,61,0.00,,,0.00,1.000000,,2013-11-18 06:52:00,
2013-11-17 23:42:00,46.0,35.0,-100.00,North,352,7.0,12.0,66,0.00,,,0.00,1.000000,,2013-11-18 07:42:00,
2013-11-17 23:52:00,46.0,35.0,-100.00,North,352,7.0,12.0,66,0.00,,,0.00,1.000000,,2013-11-18 07:52:00,